Pellston, MI

3:29 AM EDT on April 28, 2017 (GMT -0400)
Pellston Regional Airport Of Emmet County

Weather History for KPLN - February, 2013

Change the Weather History Date:

Saturday, February 2, 2013

  Actual Average Record
Temperature  
Mean Temperature 6 °F -  
Max Temperature 14 °F 25 °F 43 °F (1991)
Min Temperature -2 °F 4 °F -31 °F (1976)
Degree Days  
Heating Degree Days 59    
Moisture  
Dew Point 2 °F    
Average Humidity 77    
Maximum Humidity 85    
Minimum Humidity 59    
Precipitation  
Precipitation 0.01 in - - ()
Sea Level Pressure  
Sea Level Pressure 30.05 in    
Wind  
Wind Speed 6 mph (NW)    
Max Wind Speed 13 mph    
Max Gust Speed -    
Visibility 7 miles    
Events Fog , Snow    
Averages and records for this station are not official NWS values.
T = Trace of Precipitation, MM = Missing Value Source: NWS Daily Summary

Daily Weather History Graph

Daily Weather History Graph

Search for Another Location

Airport or City:

Trip Planner

Search our weather history database for the weather conditions in past years. The results will help you decide how hot, cold, wet, or windy it might be!

Date:

Astronomy

Feb. 02, 2013 Rise Set
Actual Time 7:58 AM EST 5:47 PM EST
Civil Twilight 7:27 AM EST 6:19 PM EST
Nautical Twilight 6:51 AM EST 6:54 PM EST
Astronomical Twilight 6:17 AM EST 7:29 PM EST
Moon 12:14 AM EST (2/2) 10:45 AM EST (2/2)
Length of Visible Light 10h 51m
Length of Day
9h 48m
Waning Gibbous, 60% of the Moon is Illuminated
Feb 2
Waning Gibbous
Feb 3
Last Quarter
Feb 10
New
Feb 17
First Quarter
Feb 25
Full

Hourly Weather History & Observations

Time (EST) Temp. Windchill Dew Point Humidity Pressure Visibility Wind Dir Wind Speed Gust Speed Precip Events Conditions
12:07 AM 10.4 °F -4.8 °F 6.8 °F 85% 30.03 in 0.8 mi NW 12.7 mph - 0.00 in Snow Light Snow
12:15 AM 10.4 °F -3.3 °F 6.8 °F 85% 30.03 in 0.5 mi WNW 10.4 mph - 0.00 in Fog , Snow Snow
12:32 AM 10.4 °F -1.5 °F 5.0 °F 79% 30.03 in 1.0 mi NW 8.1 mph - 0.00 in Snow Light Snow
12:47 AM 10.4 °F 0.8 °F 5.0 °F 79% 30.03 in 0.8 mi NW 5.8 mph - 0.00 in Snow Light Snow
12:54 AM 10.0 °F 1.8 °F 6.1 °F 84% 30.07 in 1.0 mi NW 4.6 mph - 0.00 in Snow Light Snow
1:16 AM 10.4 °F -0.4 °F 5.0 °F 79% 30.02 in 0.8 mi NNW 6.9 mph - 0.01 in Snow Light Snow
1:34 AM 8.6 °F -2.6 °F 3.2 °F 79% 30.01 in 1.0 mi NW 6.9 mph - 0.01 in Snow Light Snow
1:54 AM 9.0 °F -0.9 °F 3.9 °F 80% 30.06 in 1.0 mi NNW 5.8 mph - 0.01 in Snow Light Snow
2:33 AM 8.6 °F 0.1 °F 3.2 °F 79% 30.01 in 2.0 mi North 4.6 mph - 0.00 in Snow Light Snow
2:54 AM 8.1 °F -0.5 °F 3.0 °F 80% 30.06 in 4.0 mi NNW 4.6 mph - 0.00 in Snow Light Snow
3:09 AM 8.6 °F 2.0 °F 3.2 °F 79% 30.01 in 6.0 mi NW 3.5 mph - 0.00 in Snow Light Snow
3:28 AM 8.6 °F 2.0 °F 3.2 °F 79% 30.01 in 4.0 mi West 3.5 mph - 0.00 in Snow Light Snow
3:36 AM 8.6 °F 2.0 °F 3.2 °F 79% 30.01 in 6.0 mi West 3.5 mph - 0.00 in Snow Light Snow
4:54 AM 8.1 °F - 3.0 °F 80% 30.05 in 10.0 mi Calm Calm - N/A   Overcast
5:54 AM 9.0 °F - 1.9 °F 73% 30.04 in 10.0 mi Calm Calm - N/A   Overcast
6:20 AM 8.6 °F 0.1 °F 1.4 °F 73% 29.99 in 10.0 mi West 4.6 mph - N/A   Overcast
7:54 AM 3.9 °F -5.3 °F -0.0 °F 84% 30.06 in 10.0 mi North 4.6 mph - 0.00 in   Overcast
8:54 AM 7.0 °F -3.3 °F 1.0 °F 77% 30.07 in 10.0 mi NNW 5.8 mph - N/A   Overcast
9:54 AM 7.0 °F -4.5 °F 1.0 °F 77% 30.07 in 10.0 mi WNW 6.9 mph - N/A   Scattered Clouds
10:54 AM 8.1 °F -0.5 °F 1.9 °F 76% 30.08 in 10.0 mi NW 4.6 mph - N/A   Clear
11:54 AM 12.0 °F - 3.9 °F 70% 30.08 in 10.0 mi Calm Calm - N/A   Clear
12:54 PM 12.9 °F 3.8 °F 3.0 °F 65% 30.06 in 10.0 mi North 5.8 mph - N/A   Clear
1:54 PM 12.9 °F 1.6 °F 1.0 °F 59% 30.06 in 10.0 mi NNW 8.1 mph - N/A   Scattered Clouds
2:54 PM 12.0 °F -0.4 °F 1.0 °F 61% 30.06 in 10.0 mi NW 9.2 mph - 0.00 in   Overcast
3:54 PM 14.0 °F 2.0 °F 1.9 °F 59% 30.06 in 10.0 mi NW 9.2 mph - N/A   Overcast
4:54 PM 10.9 °F 1.4 °F -0.0 °F 61% 30.07 in 10.0 mi NW 5.8 mph - N/A   Clear
5:54 PM 7.0 °F - -0.9 °F 70% 30.08 in 10.0 mi Calm Calm - N/A   Clear
6:54 PM 1.9 °F - -2.0 °F 83% 30.09 in 10.0 mi Calm Calm - N/A   Partly Cloudy
7:54 PM 1.0 °F - -4.0 °F 79% 30.09 in 10.0 mi Calm Calm - N/A   Overcast
8:54 PM -2.0 °F - -6.0 °F 83% 30.07 in 10.0 mi Calm Calm - N/A   Mostly Cloudy
9:54 PM -2.9 °F - -7.1 °F 82% 30.06 in 10.0 mi Calm Calm - N/A   Overcast
10:50 PM 1.4 °F - -2.2 °F 85% 30.00 in 9.0 mi Calm Calm - N/A   Overcast
10:54 PM 1.9 °F - -2.9 °F 80% 30.06 in 10.0 mi Calm Calm - N/A   Overcast
11:54 PM 3.0 °F - -0.9 °F 84% 30.04 in 10.0 mi Calm Calm - N/A   Overcast